TimeMDT,TemperatureF,Dew PointF,Humidity,Sea Level PressureIn,VisibilityMPH,Wind Direction,Wind SpeedMPH,Gust SpeedMPH,PrecipitationIn,Events,Conditions,WindDirDegrees,DateUTC
12:17 AM,33.8,30.2,87,30.38,10.0,NNW,9.2,-,N/A,,Overcast,340,2012-10-04 06:17:00
12:53 AM,32.0,30.9,96,30.44,10.0,NNW,15.0,-,N/A,,Overcast,340,2012-10-04 06:53:00
1:48 AM,32.0,30.2,93,30.38,10.0,NW,10.4,-,N/A,,Overcast,310,2012-10-04 07:48:00
1:53 AM,32.0,30.0,92,30.45,10.0,NW,12.7,-,N/A,,Overcast,310,2012-10-04 07:53:00
2:42 AM,32.0,30.2,93,30.37,10.0,NNW,12.7,-,N/A,,Overcast,340,2012-10-04 08:42:00
2:53 AM,32.0,30.0,92,30.45,10.0,NNW,8.1,-,N/A,,Overcast,330,2012-10-04 08:53:00
3:27 AM,32.0,30.2,93,30.36,10.0,NNW,10.4,-,N/A,,Overcast,330,2012-10-04 09:27:00
3:53 AM,30.9,30.0,96,30.45,8.0,NNW,5.8,-,N/A,,Overcast,340,2012-10-04 09:53:00
4:53 AM,32.0,28.9,88,30.45,10.0,NNW,10.4,-,N/A,,Overcast,330,2012-10-04 10:53:00
5:21 AM,30.2,28.4,93,30.37,10.0,NNW,6.9,-,N/A,,Overcast,340,2012-10-04 11:21:00
5:28 AM,30.2,28.4,93,30.37,10.0,NNW,5.8,-,N/A,,Overcast,330,2012-10-04 11:28:00
5:53 AM,30.0,28.9,96,30.45,10.0,North,3.5,-,N/A,,Mostly Cloudy,350,2012-10-04 11:53:00
6:53 AM,30.0,28.9,96,30.45,10.0,NNE,3.5,-,N/A,,Overcast,20,2012-10-04 12:53:00
7:53 AM,30.9,30.0,96,30.45,10.0,Calm,Calm,-,N/A,,Overcast,0,2012-10-04 13:53:00
8:15 AM,32.0,30.2,93,30.36,10.0,Calm,Calm,-,N/A,,Mostly Cloudy,0,2012-10-04 14:15:00
8:27 AM,32.0,30.2,93,30.37,10.0,Calm,Calm,-,N/A,,Mostly Cloudy,0,2012-10-04 14:27:00
8:34 AM,32.0,30.2,93,30.36,10.0,Variable,3.5,-,N/A,,Scattered Clouds,0,2012-10-04 14:34:00
8:53 AM,33.1,30.0,89,30.44,10.0,SSE,3.5,-,N/A,,Scattered Clouds,150,2012-10-04 14:53:00
9:07 AM,33.8,30.2,87,30.36,10.0,Calm,Calm,-,N/A,,Mostly Cloudy,0,2012-10-04 15:07:00
9:53 AM,36.0,28.0,73,30.43,10.0,North,4.6,-,N/A,,Overcast,10,2012-10-04 15:53:00
10:37 AM,39.2,28.4,65,30.36,10.0,Variable,4.6,-,N/A,,Scattered Clouds,0,2012-10-04 16:37:00
10:53 AM,37.9,26.1,62,30.41,10.0,NNE,8.1,-,N/A,,Mostly Cloudy,30,2012-10-04 16:53:00
11:03 AM,39.2,26.6,61,30.34,10.0,ENE,5.8,-,N/A,,Scattered Clouds,60,2012-10-04 17:03:00
11:53 AM,41.0,25.0,53,30.39,10.0,Variable,3.5,-,N/A,,Partly Cloudy,0,2012-10-04 17:53:00
12:53 PM,41.0,25.0,53,30.38,10.0,North,5.8,-,N/A,,Overcast,10,2012-10-04 18:53:00
1:53 PM,42.1,24.1,49,30.36,10.0,North,4.6,-,N/A,,Overcast,360,2012-10-04 19:53:00
2:53 PM,43.0,24.1,47,30.32,10.0,NNW,8.1,-,N/A,,Overcast,330,2012-10-04 20:53:00
3:53 PM,42.1,24.1,49,30.34,10.0,North,3.5,-,N/A,,Mostly Cloudy,350,2012-10-04 21:53:00
4:53 PM,41.0,24.1,51,30.34,10.0,NE,10.4,-,N/A,,Overcast,50,2012-10-04 22:53:00
5:53 PM,39.9,24.1,53,30.35,10.0,NE,10.4,-,N/A,,Overcast,50,2012-10-04 23:53:00
6:53 PM,37.9,26.1,62,30.37,10.0,ENE,11.5,-,N/A,,Overcast,60,2012-10-05 00:53:00
7:53 PM,37.0,25.0,62,30.38,10.0,ENE,10.4,-,N/A,,Overcast,60,2012-10-05 01:53:00
8:53 PM,36.0,26.1,67,30.38,10.0,ENE,8.1,-,N/A,,Overcast,70,2012-10-05 02:53:00
9:53 PM,35.1,26.1,70,30.38,10.0,ENE,5.8,-,N/A,,Overcast,70,2012-10-05 03:53:00
10:53 PM,35.1,26.1,70,30.37,10.0,NE,5.8,-,N/A,,Overcast,50,2012-10-05 04:53:00
11:53 PM,34.0,26.1,73,30.36,6.0,East,6.9,-,0.00,Snow,Light Snow,100,2012-10-05 05:53:00